GW2299 Weather Reports


time (UTC)temp
F
wind
direction
speed
knots
gust
knots
rain 1hr
in
rain 24hr
in
rain mn
in
humidity
%
barometer
mb
20260906063035 69 0 0.0 0.9 0.00 0.00 0.00 80 1023.1
20260906061535 69 0 0.0 0.0 0.00 0.00 0.00 82 1022.9
20260906060033 69 0 0.0 0.0 0.00 0.00 0.00 82 1022.8
20260906053042 68 0 0.0 0.0 0.00 0.00 0.00 83 1022.5
20260906051534 68 259 0.0 0.9 0.00 0.00 0.00 84 1022.6
20260906050035 68 0 0.0 0.9 0.00 0.00 0.00 84 1022.4
20260906043035 67 0 0.0 0.9 0.00 0.00 0.00 83 1022.4
20260906034542 69 0 0.0 0.9 0.00 0.00 0.00 81 1022.2
20260906033035 69 0 0.0 0.0 0.00 0.00 0.00 80 1022.1
20260906031536 69 0 0.0 0.9 0.00 0.00 0.00 80 1022.1
20260906024538 69 0 0.0 0.9 0.00 0.00 0.00 79 1022.2
20260906023034 69 259 0.0 0.9 0.00 0.00 0.00 77 1022.1
20260906021533 69 0 0.0 0.0 0.00 0.00 0.00 76 1022.1
20260906014545 70 259 0.0 0.9 0.00 0.00 0.00 75 1022.2
20260906011535 70 0 0.0 0.9 0.00 0.00 0.00 70 1022.2
20260906010036 71 0 0.0 0.9 0.00 0.00 0.00 66 1022.2
20260906001535 71 0 0.0 0.0 0.00 0.00 0.00 65 1022.2
20260906000040 71 0 0.0 0.0 0.00 0.00 0.00 64 1022.1
20260905233039 71 0 0.0 0.0 0.00 0.00 0.00 63 1022.3
20260905231541 71 0 0.0 0.0 0.00 0.00 0.00 65 1022.2
20260905224535 72 0 0.0 0.0 0.00 0.00 0.00 63 1022.3
20260905223035 72 0 0.0 0.0 0.00 0.00 0.00 63 1022.5
20260905221537 73 0 0.0 0.0 0.00 0.00 0.00 64 1022.5
20260905220033 73 0 0.0 0.0 0.00 0.00 0.00 65 1022.3
20260905213034 74 0 0.0 0.9 0.00 0.00 0.00 57 1022.3
20260905211538 74 0 0.0 0.9 0.00 0.00 0.00 58 1022.2
20260905210033 74 0 0.0 2.6 0.00 0.00 0.00 60 1022.1
20260905204537 74 0 0.0 0.0 0.00 0.00 0.00 64 1022.2
20260905203034 75 0 0.0 0.0 0.00 0.00 0.00 57 1022.3
20260905201534 75 0 0.0 0.0 0.00 0.00 0.00 57 1022.3
20260905200035 76 291 0.0 0.9 0.00 0.00 0.00 56 1022.2
20260905193042 76 273 0.9 5.2 0.00 0.00 0.00 56 1022.2
20260905191539 77 285 0.9 2.6 0.00 0.00 0.00 53 1022.0
20260905190035 77 275 0.0 1.7 0.00 0.00 0.00 53 1021.8
20260905184533 78 0 0.0 2.6 0.00 0.00 0.00 50 1021.6
20260905183036 79 278 0.9 5.2 0.00 0.00 0.00 49 1021.5
20260905180037 80 0 2.6 13.0 0.00 0.00 0.00 44 1020.8
20260905174533 80 217 4.3 13.0 0.00 0.00 0.00 44 1020.8
20260905173034 81 112 3.5 12.2 0.00 0.00 0.00 43 1020.7
20260905171537 82 212 4.3 15.6 0.00 0.00 0.00 43 1020.6
20260905170038 83 186 4.3 14.8 0.00 0.00 0.00 40 1020.5
20260905164534 84 263 5.2 15.6 0.00 0.00 0.00 39 1020.5
20260905163038 85 221 3.5 17.4 0.00 0.00 0.00 37 1020.6
20260905161534 85 221 5.2 16.5 0.00 0.00 0.00 36 1020.4
20260905160037 86 183 3.5 13.0 0.00 0.00 0.00 37 1020.4
20260905153037 87 200 5.2 16.5 0.00 0.00 0.00 38 1020.4
20260905151536 88 245 5.2 14.8 0.00 0.00 0.00 37 1020.3
20260905144535 89 296 3.5 13.9 0.00 0.00 0.00 40 1020.5
20260905143038 89 255 3.5 14.8 0.00 0.00 0.00 41 1020.4
20260905140037 89 295 3.5 12.2 0.00 0.00 0.00 41 1020.5
20260905134544 90 212 2.6 11.3 0.00 0.00 0.00 41 1020.5
20260905133033 90 198 4.3 12.2 0.00 0.00 0.00 39 1020.7
20260905131538 91 198 0.9 9.6 0.00 0.00 0.00 40 1020.7
20260905130033 89 231 2.6 12.2 0.00 0.00 0.00 39 1021.0
20260905124535 89 207 5.2 13.9 0.00 0.00 0.00 41 1021.0
20260905123035 89 176 3.5 12.2 0.00 0.00 0.00 41 1021.2
20260905121536 89 220 3.5 11.3 0.00 0.00 0.00 41 1021.3
20260905120037 89 89 3.5 11.3 0.00 0.00 0.00 40 1021.5
20260905114534 89 235 4.3 11.3 0.00 0.00 0.00 40 1021.7
20260905113037 88 263 3.5 12.2 0.00 0.00 0.00 39 1021.7
20260905111535 89 226 2.6 12.2 0.00 0.00 0.00 40 1021.5
20260905110036 88 189 3.5 13.0 0.00 0.00 0.00 41 1021.6
20260905104532 88 154 2.6 12.2 0.00 0.00 0.00 41 1021.7
20260905103043 88 338 0.9 10.4 0.00 0.00 0.00 40 1021.9
20260905101536 87 230 4.3 10.4 0.00 0.00 0.00 39 1022.1
20260905100039 88 296 3.5 11.3 0.00 0.00 0.00 39 1022.2
20260905094536 87 200 1.7 11.3 0.00 0.00 0.00 39 1022.4
20260905093047 87 288 1.7 6.1 0.00 0.00 0.00 39 1022.3
20260905091537 87 238 1.7 7.0 0.00 0.00 0.00 40 1022.2
20260905084533 85 0 1.7 6.1 0.00 0.00 0.00 41 1022.1
20260905083033 85 0 1.7 5.2 0.00 0.00 0.00 42 1021.9
20260905081534 83 293 0.0 1.7 0.00 0.00 0.00 42 1021.8
20260905074536 82 295 0.0 1.7 0.00 0.00 0.00 45 1021.7
20260905073035 81 294 0.0 1.7 0.00 0.00 0.00 45 1021.8
20260905071534 79 0 0.0 0.9 0.00 0.00 0.00 47 1021.8
20260905070036 77 0 0.0 0.0 0.00 0.00 0.00 48 1021.7